Simultaneous Nadir Overpasses (SNOs) Predictions

Prediction of SNOs between GOES-16 and TERRA Satellite Orbit:

Table of predicted SNOs for the next 14.0 days since TLE Epoch: 1/28/2017
Index Date Time (GOES-16) GOES-16 Lat,Lon TERRA Lat,Lon Distance(km) Time Diff (sec)
1 01/28/2017 04:31:29 0.01, -89.47 0.00, -89.98 56.51 80
2 01/30/2017 04:19:16 0.01, -89.48 0.52, -87.00 282.07 80
3 01/30/2017 16:37:52 -0.01, -89.51 0.55, -92.16 301.16 80
4 02/01/2017 16:28:21 -0.01, -89.53 -0.09, -89.21 36.64 80
5 02/03/2017 16:16:10 -0.01, -89.55 -0.73, -86.26 374.50 80
6 02/04/2017 04:34:54 0.01, -89.53 -0.38, -91.45 218.36 80
7 02/06/2017 04:25:23 0.02, -89.55 0.27, -88.50 119.61 80
8 02/06/2017 16:43:58 -0.02, -89.58 0.87, -93.65 463.73 80
9 02/08/2017 04:13:11 0.01, -89.57 0.85, -85.54 457.73 80
10 02/08/2017 16:31:47 -0.02, -89.60 0.23, -90.70 125.45 80
11 02/10/2017 16:22:16 -0.02, -89.63 -0.42, -87.75 213.45 80




NCC Satellite Simultaneous Nadir Overpasses (SNOs) Prediction Service
